Theta_e
315 317 318 320 320 322 324 326 329 330 330 329 328 326 325 325 325 323 321 320 319 319 318 316 315 313 312 311 308 305 303 302 302 302 301 300 300 299 300 300 300 300
315 317 318 320 321 323 325 326 328 329 329 329 329 327 325 326 326 322 320 319 317 317 317 315 313 311 311 309 305 303 302 302 302 301 301 300 300 300 301 301 300 299
316 317 319 319 321 323 325 326 327 329 329 328 329 328 325 325 325 322 320 320 320 319 317 313 311 311 309 306 303 301 301 301 301 300 300 300 301 302 302 300 299 298
316 318 319 320 322 324 326 327 328 329 329 329 328 328 326 325 325 322 320 321 322 321 316 311 310 310 306 303 301 301 301 301 300 299 300 302 302 302 301 299 298 297
316 318 320 322 324 326 328 328 328 328 329 328 327 328 327 326 325 322 320 321 321 319 314 310 310 307 304 301 300 300 301 301 299 299 301 303 302 300 299 298 297 297
316 318 321 323 325 327 328 328 328 328 327 327 327 327 325 325 325 323 320 320 319 316 311 310 308 305 301 301 300 300 300 299 299 301 303 302 300 299 298 297 297 297
316 318 321 323 326 327 328 328 328 328 326 326 328 326 324 324 325 323 320 320 319 314 310 309 306 302 301 300 299 300 299 298 299 301 302 301 299 298 297 297 297 297
316 319 322 324 325 327 328 328 328 327 326 326 325 324 325 325 325 323 320 320 317 312 310 308 303 300 300 299 299 300 299 299 301 301 300 299 298 297 297 297 297 296
318 320 323 324 325 326 327 327 327 327 326 325 323 324 326 325 323 322 321 319 316 312 309 305 301 300 300 299 299 299 298 300 301 300 299 298 297 297 297 296 296 295
318 320 322 324 324 325 325 325 326 326 327 326 323 325 327 323 322 323 321 319 317 312 307 303 300 299 299 298 298 298 298 299 299 299 298 297 296 296 296 296 295 295
315 316 318 319 320 321 321 323 325 325 327 326 324 325 325 322 323 323 321 319 317 312 305 301 300 299 298 298 298 298 299 298 297 297 297 296 296 296 296 296 295 295
312 313 314 314 315 314 315 319 323 325 327 326 325 325 322 321 324 323 321 319 315 310 303 300 299 298 298 298 297 299 300 298 296 296 296 295 296 296 296 295 295 294
312 312 313 312 312 311 313 319 323 325 327 325 324 323 321 321 323 323 321 318 313 307 302 299 298 298 297 297 297 299 299 298 296 295 295 295 295 296 296 295 295 294
311 311 311 312 312 312 315 319 321 322 324 324 323 323 323 322 321 321 319 315 310 305 300 298 298 297 297 297 297 298 298 296 295 295 295 295 295 296 295 295 295 294
309 310 311 311 310 313 317 319 320 321 322 323 324 324 323 322 319 318 317 313 307 303 299 297 297 297 297 297 297 298 296 295 295 295 295 295 296 296 295 295 295 294
308 310 315 315 313 317 322 322 321 322 321 321 322 323 322 321 319 318 316 312 306 301 298 297 297 296 296 296 297 297 295 295 295 294 295 296 296 296 295 295 294 294
309 310 317 320 318 319 320 319 319 321 320 319 320 322 322 321 320 318 315 310 304 300 298 297 296 296 296 296 295 295 294 294 294 294 295 296 295 295 295 294 294 294
312 313 316 319 319 319 318 318 319 320 321 320 320 321 320 319 319 317 313 308 302 299 298 297 296 296 295 295 295 295 294 294 294 294 295 295 295 295 295 294 294 293
312 316 317 316 316 317 318 319 319 319 320 320 319 319 318 318 318 315 310 305 301 298 297 296 296 295 295 295 295 294 294 294 294 295 295 295 295 295 294 294 293 294
311 315 317 316 316 317 317 318 318 318 318 318 317 317 317 318 316 311 307 304 299 297 297 296 295 295 295 295 294 294 294 294 294 295 295 295 294 294 294 293 294 295
311 312 313 313 315 318 318 317 317 317 317 317 316 317 317 315 312 309 306 302 298 297 296 295 295 295 294 294 294 293 294 294 294 294 294 294 294 293 293 294 295 296
311 312 312 312 313 315 315 316 316 316 316 316 316 316 315 311 309 307 304 300 297 297 296 295 295 294 294 294 293 293 293 294 294 294 294 294 293 293 293 295 296 297
312 311 312 312 312 313 313 314 314 314 315 315 315 314 311 309 307 306 302 298 297 296 295 295 294 294 294 294 293 293 293 293 293 293 293 293 292 293 295 297 297 298
312 312 312 313 313 314 314 314 314 314 315 314 313 310 309 308 307 304 300 297 296 296 295 295 294 294 294 294 293 293 293 293 293 293 292 292 293 295 297 298 298 298
311 311 312 312 313 313 314 315 314 314 313 312 310 308 308 307 305 302 299 297 295 295 295 294 294 294 294 293 293 293 292 292 292 292 292 293 295 297 299 299 299 298
310 310 310 310 310 311 313 314 313 312 311 310 309 308 307 306 304 301 298 296 295 295 294 294 293 293 293 293 292 292 292 292 292 292 292 295 298 299 299 300 299 298
Wind_Speed
38 38 39 40 39 37 36 34 32 31 29 29 29 29 29 28 25 23 23 24 26 27 24 21 18 18 19 19 19 17 16 14 12 11 9 7 5 3 1 1 3 5
37 38 39 39 39 37 36 34 32 30 29 28 29 29 28 27 26 24 23 24 24 22 20 20 20 20 20 20 19 17 16 14 12 11 9 7 5 3 1 1 3 5
37 37 38 38 38 36 35 33 31 29 28 28 29 29 28 28 27 24 23 25 25 21 20 22 23 22 22 21 19 18 16 14 12 11 9 7 5 2 1 2 3 5
38 37 37 37 35 34 33 32 30 28 29 29 29 29 29 29 28 25 24 28 28 25 23 25 25 24 23 22 20 18 17 15 13 11 9 6 4 2 2 2 3 4
37 37 36 35 33 32 32 31 30 29 30 31 30 30 30 30 28 25 25 28 28 25 25 28 27 25 24 22 20 19 17 15 13 11 9 6 4 3 2 2 3 5
36 36 35 34 32 32 32 31 30 30 31 31 31 32 31 30 29 25 24 27 26 24 27 29 27 26 24 22 21 19 17 15 13 11 9 6 5 4 3 3 4 5
36 35 34 33 32 32 32 31 30 31 31 31 32 33 31 30 29 25 24 26 25 25 28 29 27 26 24 22 21 20 18 16 14 11 9 7 6 5 4 3 4 5
36 35 34 33 32 33 33 31 32 32 32 32 32 32 33 32 29 25 24 26 25 26 29 29 28 26 24 23 22 20 18 16 14 11 9 8 7 5 4 4 5 5
34 33 33 32 32 33 33 33 33 32 33 33 30 31 33 30 26 25 25 24 24 27 30 30 28 26 25 24 22 20 18 16 13 12 10 9 7 6 5 5 5 5
33 33 33 33 33 33 33 33 33 32 34 32 29 31 32 27 26 28 27 25 24 28 31 30 28 27 26 24 23 21 18 16 14 13 11 10 8 7 6 5 5 6
34 33 33 33 34 34 33 34 32 32 35 32 29 32 30 28 32 31 28 27 26 29 32 30 28 28 26 25 23 21 19 17 15 14 12 10 9 8 7 6 6 6
34 34 35 34 35 35 34 33 33 33 34 32 32 32 30 30 33 31 27 27 27 31 32 30 29 28 26 25 23 21 20 18 16 15 13 11 10 8 8 7 6 6
32 33 34 34 34 34 33 31 32 32 34 34 33 33 32 31 32 31 29 27 29 33 33 30 30 28 26 25 23 21 20 18 17 15 13 12 10 9 8 7 6 7
30 30 31 31 31 30 29 29 31 32 36 37 35 34 33 30 29 31 30 28 31 34 33 31 30 28 27 26 24 22 20 18 17 15 14 13 11 10 8 7 6 7
25 25 25 25 26 27 27 28 29 30 32 33 33 33 31 27 27 28 27 30 34 35 33 31 30 28 27 26 24 23 21 19 17 16 14 13 11 10 8 7 6 6
21 22 23 22 23 25 27 28 28 29 27 26 29 33 30 27 28 28 27 31 36 35 33 32 30 29 27 25 24 22 20 19 18 16 15 13 11 10 8 6 6 6
19 21 24 25 24 24 26 27 28 29 28 28 30 33 31 29 30 29 29 33 36 35 34 32 30 30 28 26 25 23 21 19 18 16 15 13 11 9 7 6 5 6
19 21 24 26 26 25 26 27 28 29 30 31 32 33 32 32 31 29 31 35 36 35 34 32 31 30 29 28 26 24 22 20 18 17 15 13 12 9 7 6 5 5
21 23 24 25 25 26 27 28 29 30 32 33 33 32 32 32 31 31 34 36 37 36 34 32 32 31 30 28 26 24 22 20 19 17 15 13 12 9 7 5 4 5
22 25 27 26 25 26 27 28 30 32 33 34 34 33 32 32 32 34 37 38 37 36 33 33 32 31 30 29 26 24 22 21 19 18 16 14 12 9 7 5 3 4
24 26 28 28 28 29 30 31 33 35 35 35 35 33 32 33 34 36 38 38 37 35 34 33 32 31 30 28 26 25 23 21 20 18 16 14 12 10 7 4 3 4
25 27 28 29 30 31 33 35 36 37 36 36 34 33 32 33 35 37 38 38 37 35 34 33 32 31 30 28 27 25 24 22 21 19 17 15 12 10 7 5 5 5
24 27 29 30 31 33 34 35 35 35 34 33 33 33 34 36 37 39 39 38 37 36 35 33 32 31 30 29 27 26 25 23 21 20 18 15 13 10 8 7 7 7
22 24 27 29 30 31 32 32 32 32 31 31 32 34 35 37 39 39 39 37 36 34 34 33 32 32 31 30 28 27 25 24 22 20 18 16 14 12 10 10 9 9
21 21 23 24 25 26 28 30 30 30 31 32 33 34 36 37 39 39 38 37 35 34 33 33 32 32 31 30 29 27 26 24 22 20 18 16 15 13 12 12 12 10
20 21 21 22 22 23 25 27 29 30 31 32 34 35 36 38 38 38 37 36 35 35 34 33 32 32 31 30 29 28 26 24 22 20 19 18 16 14 14 14 13 12
Wind_Direction
238 237 237 238 238 238 237 237 237 238 240 242 245 246 247 252 256 249 238 236 239 242 246 244 225 206 197 194 195 196 192 191 193 192 190 188 181 164 143 16 351 342
238 237 237 238 238 238 238 238 238 238 239 240 244 249 249 248 251 248 238 239 241 240 238 227 210 199 194 193 193 192 191 192 192 191 190 185 172 162 171 328 335 338
238 237 238 238 238 237 237 238 237 236 237 238 240 246 249 247 248 246 239 238 238 239 234 218 205 197 193 191 190 189 190 192 192 190 188 180 170 182 254 313 324 334
238 238 238 239 238 237 236 236 235 234 233 235 236 240 244 245 247 245 236 230 233 239 231 212 201 196 192 188 188 189 191 192 191 187 184 181 179 200 252 290 314 328
239 239 239 238 237 236 235 235 234 232 231 233 233 235 239 241 243 242 232 228 233 234 220 206 199 195 190 187 188 191 193 192 189 186 185 186 191 209 243 274 304 320
238 238 238 237 236 235 235 234 233 232 231 232 232 234 238 239 239 239 233 232 235 226 210 203 198 192 189 188 189 192 194 191 187 187 188 190 197 214 236 265 295 311
238 238 237 236 236 235 235 235 233 231 232 231 231 235 237 236 236 236 233 233 232 220 208 202 196 191 188 189 191 192 192 190 188 187 191 195 200 217 234 259 287 302
238 238 237 236 235 234 234 234 231 231 231 229 232 236 232 230 232 232 231 232 226 215 207 200 194 190 190 191 193 194 191 189 189 190 195 199 203 216 232 255 279 291
238 238 236 235 235 234 234 233 230 231 231 231 236 233 224 225 231 230 230 231 223 213 205 197 192 191 193 194 194 194 192 189 189 192 198 203 206 217 231 248 268 280
239 237 236 235 235 234 233 231 230 229 229 231 234 227 222 229 232 227 231 232 224 213 202 194 192 192 194 195 194 192 190 190 193 196 200 202 206 218 229 242 258 274
240 238 236 236 234 234 232 229 229 227 226 230 231 224 225 232 225 222 233 235 223 210 201 194 193 195 195 195 194 191 189 191 195 199 201 202 207 216 226 238 253 271
239 237 236 235 234 233 231 227 226 225 226 229 228 223 227 228 219 221 237 237 219 206 199 195 195 197 197 197 196 193 192 193 197 200 201 202 207 214 224 237 252 270
237 236 234 232 232 230 227 224 223 224 226 226 224 225 227 221 217 226 238 231 212 202 198 197 198 198 197 197 197 196 196 196 198 201 201 203 208 215 223 237 254 272
232 232 229 228 228 224 220 218 219 223 227 224 222 222 220 216 220 230 232 220 205 200 198 198 199 200 198 197 197 197 198 198 199 201 202 205 209 215 223 237 256 276
226 224 222 222 219 214 214 216 217 222 224 222 220 216 212 219 231 232 225 212 203 199 199 199 200 201 201 200 199 199 199 199 200 202 203 206 211 215 224 238 258 281
221 215 213 217 212 208 213 217 218 220 217 217 220 214 210 223 234 230 220 211 203 199 199 200 201 201 202 202 202 201 201 201 201 202 204 208 212 215 225 240 262 286
219 211 209 213 213 210 212 215 216 218 217 217 218 216 216 226 232 227 217 209 204 202 201 201 201 202 202 202 202 202 203 203 203 204 206 208 211 215 225 239 264 293
217 215 213 213 211 212 214 215 214 215 216 215 215 219 224 229 230 224 213 206 204 204 203 202 202 203 203 203 203 202 202 202 203 205 207 208 211 215 225 240 268 299
215 215 220 220 215 214 216 215 214 214 216 219 221 226 229 229 227 218 208 205 205 204 205 205 204 205 204 204 204 204 203 203 204 206 207 209 212 215 224 239 273 305
218 214 219 222 221 219 218 217 218 220 223 226 229 232 231 227 220 211 206 206 206 205 206 207 207 207 206 205 205 204 204 204 205 206 207 209 211 216 224 240 274 306
223 220 220 220 219 220 220 220 222 224 227 230 232 232 229 222 214 208 206 207 207 206 207 208 208 208 207 207 206 205 205 206 205 207 208 210 213 217 222 234 264 296
227 225 225 224 222 221 222 224 226 228 230 232 231 227 220 215 211 209 208 207 207 208 208 209 209 208 208 209 208 207 207 206 206 208 210 211 214 216 217 226 251 279
233 229 228 228 228 228 229 230 230 231 230 227 223 217 213 212 211 210 210 209 209 210 210 210 210 209 210 210 210 209 208 207 208 209 211 214 214 215 218 229 249 268
238 234 231 231 232 232 233 232 230 228 225 221 218 216 214 213 211 211 211 211 212 213 214 214 213 212 212 212 212 211 209 209 210 211 214 215 215 217 226 239 254 265
240 237 234 233 233 234 233 230 227 224 222 220 219 218 217 215 213 213 213 212 213 215 217 217 215 214 214 214 214 213 211 210 211 213 215 216 217 225 237 249 258 265
241 239 237 235 235 235 233 230 227 225 224 222 221 219 218 217 216 215 215 215 216 216 217 218 217 216 216 216 216 215 213 212 213 215 216 218 224 236 248 256 262 269